This is the latest recevied weather packets stored in our database for station/object K1RFS. If no packets are shown the sender has not sent any weather packets the latest 10 day(s).
| Time | Temp. | Humidity | Pressure | Rain* | Wind** | Luminosity | Snow |
|---|---|---|---|---|---|---|---|
| 1777330900 | 2.78° C | 94% | 999.6 hPa | 0 mm | - | 47 W/m² | - |
| 1777330597 | 2.78° C | 94% | 999 hPa | 0 mm | - | 76 W/m² | - |
| 1777330294 | 2.78° C | 94% | 999.2 hPa | 0 mm | - | 104 W/m² | - |
| 1777329992 | 2.78° C | 94% | 999 hPa | 1.78 mm | - | 192 W/m² | - |
| 1777329691 | 2.78° C | 94% | 998.9 hPa | 1.78 mm | - | 210 W/m² | - |
| 1777329388 | 2.22° C | 94% | 999.1 hPa | 0 mm | - | 162 W/m² | - |
| 1777329086 | 1.67° C | 93% | 999.1 hPa | 0 mm | - | 105 W/m² | - |
| 1777328783 | 1.67° C | 93% | 999.2 hPa | 1.27 mm | - | 89 W/m² | - |
| 1777328480 | 1.67° C | 93% | 999.2 hPa | 1.27 mm | - | 89 W/m² | - |
| 1777328180 | 1.67° C | 93% | 999.1 hPa | 1.78 mm | - | 62 W/m² | - |
| 1777327878 | 1.67° C | 93% | 999.2 hPa | 3.05 mm | - | 106 W/m² | - |
| 1777327575 | 1.67° C | 93% | 999.3 hPa | 3.05 mm | - | 123 W/m² | - |
| 1777327272 | 1.67° C | 93% | 999.2 hPa | 4.32 mm | - | 134 W/m² | - |
| 1777326969 | 1.67° C | 93% | 999.1 hPa | 4.83 mm | - | 121 W/m² | - |
| 1777326666 | 1.67° C | 93% | 999.2 hPa | 4.83 mm | - | 99 W/m² | - |
| 1777326363 | 1.67° C | 92% | 999.2 hPa | 4.32 mm | - | 79 W/m² | - |
| 1777326061 | 1.67° C | 92% | 999.2 hPa | 3.05 mm | - | 66 W/m² | - |
| 1777325758 | 1.67° C | 92% | 999.2 hPa | 3.56 mm | - | 58 W/m² | - |
| 1777325457 | 1.67° C | 92% | 999 hPa | 3.05 mm | - | 49 W/m² | - |
| 1777325154 | 1.67° C | 92% | 999 hPa | 3.05 mm | - | 42 W/m² | - |
| 1777324850 | 1.67° C | 91% | 999.1 hPa | 1.78 mm | - | 44 W/m² | - |
| 1777324548 | 1.67° C | 91% | 999 hPa | 1.27 mm | - | 47 W/m² | - |
| 1777324245 | 1.67° C | 91% | 999 hPa | 3.05 mm | - | 48 W/m² | - |
| 1777323943 | 1.67° C | 90% | 999.1 hPa | 3.05 mm | - | 49 W/m² | - |
| 1777323640 | 1.67° C | 90% | 999 hPa | 3.05 mm | - | 47 W/m² | - |
* Rain latest hour (hover to see other rain measurements)
** Current wind speed in m/s (hover to see current wind gust speed)